Content
SEND FEEDBACK

Daily
Averages
Monthly
Summary
United States of America

HAZELWOOD, MISSOURI


Home > North America > United States > Missouri
Elevation: 570 feet     Latitude: 38 45N     Longitude: 090 22W

WEATHER
 
SELECT A DAY
Number of Records: 201,261;   Date Range: 1/1/95 - 12/19/14
 
SHARE

PRINT THIS DATA

[ ← Previous Day ]
WEATHER ALMANAC - JANUARY 22, 2013
[ Next Day → ]
[ °C ]   °F
Weather ElementAverageHighLow
Temperature15.7 °F18 °F (2:54 pm)12.9 °F (4:54 am)
Dewpoint4.3 °F10 °F (6:54 pm)-2.9 °F (2:54 am)
Humidity61.9 %84 % (11:54 pm)45 % (2:54 am)
Barometer30.45 in30.53 in (10:54 am)30.41 in (1:20 pm)
Wind Speed2.5 mph5.8 mph (3:54 am)
Weather ElementAverage
Visibility9 mi
Wind DirectionSE (132 °)

Weather ElementTotal
Precipitation---
Heating Degree Days49.6 (Base 65)
Averaged from 25 records on January 22, 2013
WEATHER CONDITIONS BREAKOUT
WIND DIRECTION BREAKOUT
WEATHER BY HOUR - JANUARY 22, 2013
[ °C ]   °F
Local TimeTemperatureDewpointHumidityBarometerVisibilityWind DirectionWind SpeedGust SpeedPrecipitationEventsConditions
1:54 AM15.1 °F-0.9 °F49 %30.43 in10.0 miNNW (330°)4.6 mphOvercast
2:54 AM15.1 °F-2.9 °F45 %30.44 in10.0 miNNW (340°)4.6 mphMostly Cloudy
3:54 AM14.0 °F-0.9 °F52 %30.45 in10.0 miNNW (330°)5.8 mphOvercast
4:54 AM12.9 °F-0.9 °F54 %30.46 in10.0 miNW (320°)5.8 mphClear
5:54 AM12.9 °F-0.9 °F54 %30.46 in10.0 miNNW (340°)3.5 mphScattered Clouds
6:54 AM14.0 °F-2.0 °F49 %30.47 in10.0 miNorth (360°)3.5 mphMostly Cloudy
7:54 AM14.0 °F-2.0 °F49 %30.48 in10.0 miCalmMostly Cloudy
8:54 AM15.1 °F-2.0 °F47 %30.50 in10.0 miCalmOvercast
9:54 AM16.0 °F-2.0 °F45 %30.51 in10.0 miVariable3.5 mphOvercast
10:54 AM16.0 °F-2.0 °F45 %30.53 in10.0 miWest (280°)3.5 mphOvercast
11:54 AM17.1 °F1.9 °F52 %30.51 in7.0 miNNW (330°)3.5 mph0.00 inSnowLight Snow
12:39 PM17.6 °F6.8 °F63 %30.43 in2.0 miNNW (340°)3.5 mph0.00 inSnowLight Snow
12:54 PM16.0 °F8.1 °F71 %30.47 in2.0 miCalm0.00 inSnowLight Snow
1:20 PM15.8 °F8.6 °F73 %30.41 in7.0 miCalm0.00 inSnowLight Snow
1:54 PM17.1 °F8.1 °F68 %30.45 in8.0 miCalm0.00 inOvercast
2:54 PM18.0 °F9.0 °F68 %30.45 in10.0 miNE (40°)3.5 mphOvercast
3:54 PM18.0 °F8.1 °F65 %30.43 in10.0 miCalmOvercast
4:54 PM18.0 °F8.1 °F65 %30.43 in10.0 miCalmOvercast
5:54 PM18.0 °F9.0 °F68 %30.41 in10.0 miENE (60°)5.8 mphOvercast
6:54 PM18.0 °F10.0 °F71 %30.42 in10.0 miENE (60°)4.6 mphOvercast
7:54 PM15.1 °F9.0 °F77 %30.42 in10.0 miEast (100°)3.5 mphClear
8:54 PM15.1 °F9.0 °F77 %30.42 in10.0 miENE (70°)3.5 mphClear
9:54 PM15.1 °F9.0 °F77 %30.42 in10.0 miCalmClear
10:54 PM14.0 °F9.0 °F80 %30.42 in10.0 miCalmClear
11:54 PM14.0 °F10.0 °F84 %30.42 in10.0 miCalmClear
Hourly data recorded from KSUS, located miles away from Hazelwood, Missouri







STORIES FROM OUR PARTNERS